{"data":{"norad_id":52096,"intl_designator":"2022-029J","name":"STARLINK-3717","alt_names":[],"object_type":"PAYLOAD","status":"ACTIVE","operator":null,"country":"US","launch_date":"2022-03-19","launch_site_code":"AFETR","launch_vehicle":null,"mission":null,"orbit_class":"UNKNOWN","rcs_meters":null,"size_class":null,"mass_kg":null,"dimensions":null,"purposes":["comms"],"wikipedia_slug":null,"has_3d_model":false,"image_url":null,"decayed_at":null,"tle_current":{"epoch":"2026-09-19T17:57:31.830048Z","epoch_age_seconds":120484,"freshness":"FRESH","line1":"1 52096U 22029J   26262.74828507 -.00000837  00000+0 -13097-4 0  9999","line2":"2 52096  53.1597 273.4919 0001317  89.5641 270.5513 15.35382253250270","mean_motion":15.35382253,"eccentricity":0.0001317,"inclination_deg":53.1597,"raan_deg":273.4919,"arg_perigee_deg":89.5641,"mean_anomaly_deg":270.5513,"bstar":-1.3097e-5,"rev_number":25027,"period_min":93.787719454642,"perigee_km":458.88477945628,"apogee_km":460.68588819901,"semimajor_km":6837.9223338276,"source":"CELESTRAK","updated_at":"2026-09-20T09:00:39.985069Z"}}}